#timestamp,LO_Frequency,Hit,StdDev 
1538380815.6,286046999.4,N
1538380835.5,286046999.1,N
1538380855.3,286046998.9,N
1538380875.1,286047001.2,N
1538380895.9,286046996.5,N
1538380915.7,286046998.6,N
1538380935.6,286046999.0,N
1538380955.4,286046998.5,N
1538380975.2,286046996.9,N
1538380995.1,286046995.0,Y
1538380996.0,286046995.0,P
1538381015.8,286046998.5,N
1538381035.6,286046996.8,N
1538381055.5,286046999.2,N
1538381075.3,286046998.4,N
1538381095.2,286046999.0,N
1538381115.9,286046997.1,N
1538381135.7,286046997.1,N
1538381155.6,286046997.1,N
1538381175.4,286046998.1,N
1538381195.2,286046999.6,N
1538381215.1,286046997.3,N
1538381216.0,286046997.3,N
1538381235.8,286046996.7,N
1538381255.6,286046998.7,N
1538381275.5,286047000.5,N
1538381295.3,286046998.1,N
1538381315.2,286046998.1,N
1538381335.9,286047000.7,N
1538381355.7,286047001.2,N
1538381375.6,286046998.4,N
1538381395.4,286046998.9,N
1538381415.2,286046998.8,N
1538381435.1,286046998.9,N
1538381436.0,286046998.9,N
1538381455.8,286046997.4,N
1538381475.7,286046997.8,N
1538381495.5,286046997.5,N
1538381515.3,286046995.3,Y
1538381535.2,286046999.8,P
1538381555.9,286047001.9,N
1538381575.7,286047002.0,N
1538381595.6,286046999.7,N
1538381615.4,286046999.7,N
1538381635.2,286047002.2,N
1538381655.1,286047000.8,N
1538381656.0,286047000.8,N
1538381675.8,286046996.6,N
1538381695.7,286046996.9,N
1538381715.5,286046998.8,N
1538381735.3,286046998.8,N
1538381755.2,286047001.0,N
1538381775.9,286046999.5,N
1538381795.7,286046998.8,N
1538381815.6,286046999.5,N
1538381835.4,286046997.1,N
1538381855.2,286046998.5,N
1538381875.1,286047000.2,N
1538381876.0,286047000.2,N
1538381895.8,286047003.7,N
1538381915.7,286047003.9,N
1538381935.5,286047002.2,N
1538381955.3,286047002.3,N
1538381975.2,286047002.0,N
1538381995.0,286046998.5,N
1538381995.9,286046998.5,N
1538382015.7,286047001.0,N
1538382035.6,286046999.4,N
1538382055.4,286047001.1,N
1538382075.3,286046998.1,N
1538382095.1,286046999.8,N
1538382096.0,286046999.8,N
1538382115.8,286047000.0,N
1538382135.7,286047002.7,N
1538382155.5,286047003.9,N
1538382175.3,286046999.8,N
1538382195.2,286047002.2,N
1538382215.0,286047000.8,N
1538382215.9,286047000.8,N
1538382235.7,286046998.5,N
1538382255.6,286046998.3,N
1538382275.4,286046999.7,N
1538382295.3,286047000.3,N
1538382315.1,286047001.0,N
1538382316.0,286047001.0,N
1538382335.8,286047001.8,N
1538382355.7,286047003.2,N
1538382375.5,286047004.1,N
1538382395.3,286047003.2,N
1538382415.2,286047005.2,N
1538382435.0,286047007.2,Y
1538382435.9,286047007.2,P
1538382455.8,286047003.0,N
1538382475.6,286047004.3,N
1538382495.4,286047004.7,N
1538382515.3,286047005.3,N
1538382535.1,286047003.3,N
1538382555.8,286047003.1,N
1538382575.7,286047004.9,N
1538382595.5,286047004.6,N
1538382615.4,286047005.2,Y
1538382635.2,286046999.4,P
1538382655.0,286046997.1,N
1538382655.9,286046997.1,N
1538382675.8,286046997.1,N
1538382695.6,286046997.6,N
1538382715.4,286046997.1,N
1538382735.3,286046999.8,N
1538382755.1,286046999.0,N
1538382775.8,286047001.2,N
1538382795.7,286047000.3,N
1538382815.5,286046999.8,N
1538382835.4,286047001.0,N
1538382855.2,286046998.7,N
1538382875.0,286046996.6,N
1538382875.9,286046996.6,N
1538382895.8,286046998.3,N
1538382915.6,286046999.3,N
1538382935.4,286046996.7,N
1538382955.3,286046996.9,N
1538382975.1,286046997.1,N
1538382995.8,286046996.9,N
1538383015.7,286046998.2,N
1538383035.5,286047001.0,N
1538383055.4,286046996.9,N
1538383075.2,286046997.0,N
1538383095.0,286046999.7,N
1538383095.9,286046999.7,N
1538383115.8,286046998.6,N
1538383135.6,286047002.4,N
1538383155.4,286047000.3,N
1538383175.3,286046998.5,N
1538383195.1,286047001.1,N
1538383215.9,286046999.0,N
1538383235.7,286046999.8,N
1538383255.5,286047003.1,N
1538383275.4,286047002.6,N
1538383295.2,286046999.8,N
1538383315.0,286046998.7,N
1538383315.9,286046998.7,N
1538383335.8,286046999.6,N
1538383355.6,286046996.9,N
1538383375.4,286047000.9,N
1538383395.3,286046999.9,N
1538383415.1,286047000.4,N
1538383435.9,286047001.1,N
1538383455.7,286046998.2,N
1538383475.5,286046998.4,N
1538383495.4,286046999.7,N
1538383515.2,286047001.0,N
1538383535.0,286047002.3,N
1538383535.9,286047002.3,N
1538383555.8,286047002.3,N
1538383575.6,286047001.0,N
1538383595.5,286046998.1,N
1538383615.3,286046996.6,N
1538383635.1,286047000.8,N
1538383655.9,286047000.4,N
1538383675.7,286047001.1,N
1538383695.5,286046999.3,N
1538383715.4,286046999.0,N
1538383735.2,286046998.3,N
1538383755.0,286046999.2,N
1538383756.0,286046999.2,N
1538383775.8,286046998.4,N
1538383795.6,286046999.2,N
1538383815.5,286046999.6,N
1538383835.3,286046999.0,N
1538383855.1,286046997.2,N
1538383875.9,286046999.9,N
1538383895.7,286047004.0,N
1538383915.5,286047000.2,N
1538383935.4,286047003.2,N
1538383955.2,286047003.7,N
1538383975.1,286047005.6,Y
1538383976.0,286047005.6,P
1538383995.8,286047001.7,N
1538384015.6,286047002.2,N
1538384035.5,286047002.4,N
1538384055.3,286047000.6,N
1538384075.1,286046999.1,N
1538384095.9,286046998.7,N
1538384115.7,286046998.6,N
1538384135.6,286047002.1,N
1538384155.4,286047001.5,N
1538384175.2,286047002.1,N
1538384195.1,286047000.1,N
1538384196.0,286047000.1,N
1538384215.8,286046999.8,N
1538384235.6,286047001.8,N
1538384255.5,286047002.8,N
1538384275.3,286046998.1,N
1538384295.2,286047002.9,N
1538384315.9,286046999.8,N
1538384335.7,286047000.0,N
1538384355.6,286047001.0,N
1538384375.4,286046998.2,N
1538384395.3,286046999.9,N
